Notices

What's New in latest Release from April 7th, 2021:

- Updated Glossary, including Speed of Maximum Gust, and Total Hourly Precipitation

- Updated national and regional climate services offices contacts and prices information

- Addition of station inventory lists for 1981-2010, 1971-2000, and 1961-1990 Normals.

If you haven't already, please take our survey and provide feedback about our website: https://eccc.sondage-survey.ca/f/LanguageSelection.aspx?s=442ca660-fcf1-47c0-95a9-59707d6fd709

Hourly Data Report for March 26, 2003

TORONTO CITY
ONTARIO

43°40'00.000" N
79°24'00.000" W
112.50 m
6158355
71508
XTO

Download Data

Hourly Data (March 2003)
Hourly Data Report for March 26, 2003
TIME
LST
Temp Definition
°C
Dew Point Definition
°C
Rel Hum Definition
%
Precip. Amount Definition
mm

Wind Dir Definition
10's deg

Wind Spd Definition
km/h
Visibility Definition
km
Stn Press Definition
kPa
Hmdx Definition


Wind Chill Definition


Weather Definition


00:00 8.2 0.4 58   LegendMM LegendMM LegendMM 99.80     LegendNANA
01:00 7.7 1.3 64   LegendMM LegendMM LegendMM 99.81     LegendNANA
02:00 6.2 1.7 73   LegendMM LegendMM LegendMM 99.83     LegendNANA
03:00 5.9 0.1 66   LegendMM LegendMM LegendMM 99.81     LegendNANA
04:00 5.4 -1.2 62   LegendMM LegendMM LegendMM 99.81     LegendNANA
05:00 5.3 -1.9 60   LegendMM LegendMM LegendMM 99.85     LegendNANA
06:00 5.2 -2.2 59   LegendMM LegendMM LegendMM 99.86     LegendNANA
07:00 5.3 -2.1 59   LegendMM LegendMM LegendMM 99.93     LegendNANA
08:00 5.5 -2.0 58   LegendMM LegendMM LegendMM 99.99     LegendNANA
09:00 7.2 -1.8 53   LegendMM LegendMM LegendMM 99.99     LegendNANA
10:00 8.5 -2.8 45   LegendMM LegendMM LegendMM 99.99     LegendNANA
11:00 9.7 -2.7 42   LegendMM LegendMM LegendMM 99.99     LegendNANA
12:00 10.2 -1.9 43   LegendMM LegendMM LegendMM 99.97     LegendNANA
13:00 11.0 -1.8 41   LegendMM LegendMM LegendMM 99.94     LegendNANA
14:00 11.4 -1.5 41   LegendMM LegendMM LegendMM 99.89     LegendNANA
15:00 11.5 -1.7 40   LegendMM LegendMM LegendMM 99.90     LegendNANA
16:00 10.4 -2.4 41   LegendMM LegendMM LegendMM 99.92     LegendNANA
17:00 9.7 -3.3 40   LegendMM LegendMM LegendMM 99.95     LegendNANA
18:00 8.8 -3.2 43   LegendMM LegendMM LegendMM 100.02     LegendNANA
19:00 7.5 -3.2 47   LegendMM LegendMM LegendMM 100.02     LegendNANA
20:00 6.6 -2.9 51   LegendMM LegendMM LegendMM 100.07     LegendNANA
21:00 5.8 -2.9 54   LegendMM LegendMM LegendMM 100.13     LegendNANA
22:00 5.0 -3.4 55   LegendMM LegendMM LegendMM 100.13     LegendNANA
23:00 4.7 -3.9 54   LegendMM LegendMM LegendMM 100.15     LegendNANA

Notes on Data Quality.

Legend

  • E = Estimated
  • M = Missing
  • NA = Not Available*
  • [empty] = Indicates an unobserved value
Date modified: